Weather History for Kansas City, MO

Change the Weather History Date:

Thursday, March 20, 2014

  Actual Average Record
Temperature  
Mean Temperature 54 °F -  
Max Temperature 73 °F 54 °F 80 °F (2011)
Min Temperature 37 °F 34 °F 25 °F (2013)
Degree Days  
Heating Degree Days 10    
Growing Degree Days 4 (Base 50)    
Moisture  
Dew Point 27 °F    
Average Humidity 36    
Maximum Humidity 60    
Minimum Humidity 16    
Precipitation  
Precipitation 0.00 in - - ()
Sea Level Pressure  
Sea Level Pressure 29.96 in    
Wind  
Wind Speed 8 mph (SW)    
Max Wind Speed 23 mph    
Max Gust Speed 36 mph    
Visibility 10 miles    
Events      
Averages and records for this station are not official NWS values.
T = Trace of Precipitation, MM = Missing Value Source: NWS Daily Summary

Daily Weather History Graph

Daily Weather History Graph

Search for Another Location

Airport:

Trip Planner

Search our weather history database for the weather conditions in past years. The results will help you decide how hot, cold, wet, or windy it might be!

Date:

Astronomy

Mar. 20, 2014 Rise Set
Actual Time 7:21 AM CDT 7:30 PM CDT
Civil Twilight 6:55 AM CDT 7:57 PM CDT
Nautical Twilight 6:23 AM CDT 8:28 PM CDT
Astronomical Twilight 5:52 AM CDT 9:00 PM CDT
Moon 11:49 PM CDT (3/20) 9:30 AM CDT (3/20)
Length of Visible Light 13h 01m
Length of Day
12h 08m
Waning Gibbous, 84% of the Moon is Illuminated
Mar 20
Waning Gibbous
Mar 23
Last Quarter
Mar 30
New
Apr 7
First Quarter
Apr 15
Full

Hourly Weather History & Observations

Time (CDT) Temp. Windchill Dew Point Humidity Pressure Visibility Wind Dir Wind Speed Gust Speed Precip Events Conditions
12:54 AM 42.1 °F 38.4 °F 25.0 °F 51% 30.11 in 10.0 mi SSW 5.8 mph - N/A   Clear
1:54 AM 42.1 °F 39.2 °F 26.1 °F 53% 30.09 in 10.0 mi SSW 4.6 mph - N/A   Clear
2:54 AM 37.9 °F 34.4 °F 25.0 °F 60% 30.09 in 10.0 mi SSW 4.6 mph - N/A   Clear
3:54 AM 37.9 °F - 24.1 °F 57% 30.08 in 10.0 mi Calm Calm - N/A   Clear
4:54 AM 39.0 °F - 25.0 °F 57% 30.08 in 10.0 mi Calm Calm - N/A   Clear
5:54 AM 37.9 °F - 24.1 °F 57% 30.09 in 10.0 mi Calm Calm - N/A   Clear
6:54 AM 39.9 °F 35.8 °F 25.0 °F 55% 30.08 in 10.0 mi SSW 5.8 mph - N/A   Clear
7:54 AM 42.1 °F 37.1 °F 26.1 °F 53% 30.08 in 10.0 mi SW 8.1 mph - N/A   Clear
8:54 AM 46.0 °F 41.0 °F 26.1 °F 46% 30.07 in 10.0 mi SW 10.4 mph - N/A   Clear
9:54 AM 50.0 °F - 27.0 °F 41% 30.06 in 10.0 mi WSW 6.9 mph - N/A   Clear
10:54 AM 55.9 °F - 27.0 °F 33% 30.05 in 10.0 mi Variable 5.8 mph - N/A   Clear
11:54 AM 61.0 °F - 26.1 °F 26% 30.00 in 10.0 mi SSW 13.8 mph 21.9 mph N/A   Clear
12:54 PM 66.0 °F - 26.1 °F 22% 29.97 in 10.0 mi SW 17.3 mph 25.3 mph N/A   Clear
1:54 PM 71.1 °F - 26.1 °F 19% 29.92 in 10.0 mi SW 19.6 mph 26.5 mph N/A   Clear
2:54 PM 72.0 °F - 24.1 °F 17% 29.87 in 10.0 mi SW 23.0 mph 35.7 mph 0.00 in   Clear
3:54 PM 72.0 °F - 41.0 °F 33% 29.84 in 10.0 mi SW 19.6 mph 31.1 mph 0.00 in   Clear
4:54 PM 72.0 °F - 23.0 °F 16% 29.81 in 10.0 mi SW 19.6 mph 32.2 mph N/A   Clear
5:54 PM 72.0 °F - 24.1 °F 17% 29.82 in 10.0 mi SW 21.9 mph 29.9 mph N/A   Clear
6:54 PM 70.0 °F - 26.1 °F 19% 29.82 in 10.0 mi SW 15.0 mph 21.9 mph N/A   Clear
7:54 PM 66.9 °F - 27.0 °F 22% 29.82 in 10.0 mi SW 10.4 mph - N/A   Clear
8:54 PM 64.0 °F - 27.0 °F 25% 29.84 in 10.0 mi West 6.9 mph - N/A   Clear
9:54 PM 63.0 °F - 28.0 °F 27% 29.83 in 10.0 mi SW 8.1 mph - N/A   Clear
10:54 PM 60.1 °F - 28.9 °F 31% 29.84 in 10.0 mi SSW 3.5 mph - N/A   Clear
11:54 PM 55.9 °F - 30.0 °F 37% 29.85 in 10.0 mi SSW 9.2 mph - N/A   Clear